ATLAS 5 CENTAUR DEB, 49340

Orbit data source: Space-Track

ATLAS 5 CENTAUR DEB, 49340 is space debris in HEO originally from a launch on Wed, 17 Oct 2018 UTC launched from the Air Force Eastern Test Range (AFETR). Debris objects in space refer to the collection of defunct objects orbiting the Earth. Examples of debris include non-operational satellites, rocket bodies, and fragments generated from explosions, collisions, or faulty payload assembly.

Loading next visibility...
Identifier
49340, 2018-079ER
Orbit
HEO
Country
Flag of USUS
Related business
Flag of USUnited Launch Alliance/Lockheed Martin (US)
Manufacturer
ULA Decatur
Mission
Spacecraft
Bus & Motor
Unknown
Mass
Unknown
Launch date (UTC)
2018-10-17 (8 years ago)
Launch vehicle
Unknown
Launch site
Air Force Eastern Test Range (AFETR)
Object type
Payload
Rocket body
Debris
Shape & HBR
Unknown shape, 1.1 m
Radar Cross Section
RCS unknown

Expand to show TLE details & history
Last TLE update: 5 days ago

TLE from 5 days ago
0 ATLAS 5 CENTAUR DEB
1 49340U 18079ER  26231.56735992 -.00000175  00000-0  00000-0 0  9999
2 49340  13.7973  33.0899 4758245 310.4453  16.7354  1.76309270 32027
Epoch: 2026-08-19T13:36Z
TLE epoch observation values (Epoch: 2026-08-19T13:36:59.897Z)
Latitude
-0.00008°
Longitude
-139.03269°
Altitude
10,716.219 km
Speed
5.733 km/s
True Right ascension
02h 12m 32s
True Declination
0° 00' 00"
Sunlit
Object was in daylight at epoch
Visualization orbit readout
Latitude
Unknown
Longitude
Unknown
Altitude
Unknown
Speed
Unknown
Apparent Right ascension
Unknown
Apparent Declination
Unknown
Sunlit
N/A
Visualization observer readout
Local Sidereal Time
21:12:54
Azimuth
Unknown
Elevation
Unknown
Doppler factor
Unknown
Orbital elements
Apogee altitude
36,340.503 km
Perigee altitude
8,794.442 km
Semi-major axis
28,945.61 km
Eccentricity
0.47582
Inclination
13.7973°
RAAN
33.0899°
Arg. of periapsis
310.4453°
True anomaly
49.34703°
Mean anomaly
16.7354°
Eccentric anomaly
30.62246°
Mean motion
0.44073 °/min
Orbital period
816.83 mins
BSTAR
0
Loading maneuver chart data...
Computing Atmospheric mass density...

Documentation

Showing up to 5 results
|